Location: Diusse
(43.5667°N, 0.1667°W)
Time: 09:13:30
(UTC+00:00)

Daily predictions for brighter satellites

Satellite Brightness Start Highest point End
(mag) Time Altitude Azimuth Time Altitude Azimuth Time Altitude Azimuth
ATLAS 5 CENTAUR R/B 1.8 16:56:55 10° NNW 17:01:22 72° NE 17:06:55 10° SE
Cosmos 1484 Rocket 3.0 16:59:12 10° S 17:02:40 67° WSW 17:06:11 10° NNW
Iridium 4 Rocket 4.1 16:59:34 10° SSW 17:04:37 60° W 17:09:17 10° N
Cosmos 2233 Rocket 4.0 17:00:35 10° S 17:06:51 77° E 17:13:11 10° N
Cosmos 1725 Rocket 4.3 17:01:36 10° SSW 17:07:52 74° W 17:14:11 10° N
Cosmos 407 Rocket 3.8 17:03:00 10° S 17:07:54 45° ESE 17:12:49 10° NNE
CBERS-1 4.3 17:03:37 10° S 17:08:43 76° WSW 17:13:51 10° NNW
Cosmos 2061 Rocket 4.0 17:03:07 10° S 17:09:22 72° E 17:15:36 10° NNE
RESURS DK-1 3.1 17:06:43 10° N 17:10:14 29° NE 17:13:45 10° ESE
Cosmos 1782 Rocket 3.6 17:09:18 10° S 17:13:44 86° W 17:18:12 10° N
ISS -3.8 17:10:33 10° WSW 17:13:53 87° NW 17:17:12 10° ENE
CZ-2D R/B 3.2 17:12:03 10° SE 17:15:01 39° ENE 17:17:59 10° N
Cosmos 1869 3.5 17:12:19 10° SSE 17:15:35 37° E 17:18:52 10° NNE
SPOT 1/Viking Rocket 4.5 17:13:39 10° ESE 17:17:52 26° ENE 17:22:06 10° N
Cosmos 1300 Rocket 3.9 17:13:33 10° SSW 17:17:56 70° W 17:22:18 10° N
SJ-12 3.9 17:18:06 10° SSE 17:21:47 51° ENE 17:25:28 10° N
IGS 5A 3.9 17:18:45 10° S 17:22:42 64° W 17:26:41 10° NNW
COSMO-SKYMED 1 4.0 17:21:32 10° NE 17:24:14 17° E 17:26:55 10° SE
SL-12 R/B(2) 4.3 17:17:52 10° SSW 17:25:35 74° ESE 17:35:00 10° NE
AQUARIUS 4.3 17:21:21 10° SE 17:25:35 47° ENE 17:29:50 10° N
BREEZE-M DEB (TANK) 2.0 17:26:16 10° WSW 17:28:31 65° NNW 17:32:21 13° ENE
Cosmos 1400 Rocket 4.1 17:27:00 10° SE 17:29:38 18° E 17:31:12 15° ENE
Cosmos 540 Rocket 3.6 17:25:32 10° N 17:30:33 51° ENE 17:35:31 10° SE
Cosmos 1975 Rocket 3.1 17:29:44 10° N 17:34:06 87° W 17:38:28 10° S
Cosmos 1812 2.5 17:32:17 10° SSE 17:34:58 37° E 17:37:34 11° NNE
Cosmos 1763 Rocket 3.4 17:30:52 10° NNW 17:36:04 68° ENE 17:41:10 10° SSE
CORIOLIS 4.4 17:32:42 10° S 17:38:03 73° WSW 17:43:25 10° NNW
Cosmos 1140 Rocket 4.4 17:34:50 10° SW 17:39:50 48° WNW 17:44:50 10° N
Cosmos 2151 Rocket 4.3 17:36:12 10° SSE 17:40:10 32° E 17:44:11 10° NNE
SMAP 3.5 17:36:58 10° S 17:41:35 67° WSW 17:46:15 10° NNW
Cosmos 44 Rocket 3.2 17:37:58 10° SSW 17:42:41 72° ESE 17:47:06 13° NE
IRS-1C 4.2 17:37:48 10° SSE 17:43:07 84° WSW 17:48:29 10° NNW
Cosmos 2058 3.2 17:40:20 10° N 17:44:05 39° ENE 17:47:49 10° SSE
Cosmos 1943 Rocket 2.1 17:42:00 10° SSW 17:47:37 87° ESE 17:53:14 10° NNE
Okean 1 Rocket 4.0 17:46:28 10° SE 17:50:07 26° E 17:51:43 21° NE
CZ-2D R/B 3.8 17:46:44 10° SE 17:50:37 42° ENE 17:54:36 10° N
SKYMED 2 3.8 17:46:51 10° NNE 17:51:05 48° E 17:55:16 10° S
Sich 1 Rocket 4.5 17:47:18 10° SSE 17:51:08 28° E 17:53:28 18° NE
PSLV R/B 4.1 17:48:44 10° SE 17:52:16 30° ENE 17:55:49 10° N
Helios 1A Rocket 3.2 17:51:57 27° ENE 17:52:36 30° E 17:55:37 10° SSE
Landsat 7 4.1 17:49:25 10° S 17:54:02 70° WSW 17:58:42 10° NNW
Cosmos 2082 Rocket 2.3 17:49:10 10° NNW 17:54:38 50° ENE 18:00:04 10° SE
Cosmos 1072 Rocket 4.5 17:49:58 10° S 17:55:59 58° E 18:01:58 10° NNE
Cosmos 2278 Rocket 2.2 17:50:45 10° SSW 17:56:24 85° WNW 18:02:06 10° NNE
Aureole 3 Rocket 2.1 17:56:39 10° S 17:59:42 85° W 18:02:51 10° N
BREEZE-M DEB (TANK) 2.9 17:57:38 10° WSW 18:00:11 72° NNW 18:03:16 23° ENE
BREEZE-M DEB (TANK) 3.4 17:58:57 10° W 18:01:19 45° NNW 18:04:09 21° NE
Cosmos 2369 Rocket 4.1 18:03:53 10° SE 18:04:20 11° SE 18:04:20 11° SE
SL-16 R/B 4.4 18:02:01 10° N 18:07:09 27° WNW 18:12:16 10° WSW
Cosmos 2251 Rocket 3.4 18:01:58 10° SSW 18:07:14 83° ESE 18:12:35 10° NNE
YAOGAN 1 2.6 18:05:56 10° SSE 18:10:02 50° ENE 18:14:11 10° N
Cosmos 371 Rocket 3.5 18:06:19 10° S 18:10:53 47° ESE 18:12:52 30° NE
Cosmos 304 Rocket 3.9 18:07:25 10° S 18:11:58 49° ESE 18:13:56 30° NE
SJ 16-02 1.2 18:09:17 10° S 18:13:32 65° ESE 18:15:42 28° NNE
SL-19 R/B 4.1 18:09:11 10° SSE 18:14:17 58° ENE 18:19:24 10° N
Cosmos 841 Rocket 3.9 18:10:46 10° N 18:15:44 40° ENE 18:17:16 33° ESE
CZ-4C R/B 4.5 18:17:02 10° NNW 18:19:11 12° N 18:21:30 10° NNE
Nadezhda 4 Rocket 3.9 18:15:15 10° N 18:21:34 74° E 18:27:45 10° SSE
Resurs 1-3 3.4 18:17:45 10° SSE 18:22:00 64° ENE 18:26:16 10° N
Cosmos 1862 2.9 18:20:08 10° N 18:23:47 85° E 18:27:24 10° S
ATLAS 2AS CENTAUR R/B 3.6 18:19:10 10° NNW 18:24:45 26° NNE 18:25:35 25° NE
ARIANE 5 R/B 4.2 18:20:23 10° SSW 18:24:51 33° W 18:29:22 10° NNW
COSMOS 2406 3.3 18:21:52 10° NNW 18:27:25 50° ENE 18:29:08 38° ESE
Cosmos 1656 Rocket 3.9 18:22:22 10° S 18:27:37 46° ESE 18:28:33 42° E
Cosmos 468 Rocket 4.0 18:24:10 10° NNW 18:29:23 78° WSW 18:34:30 10° SSE
Okean 2 Rocket 3.0 18:30:31 10° S 18:34:54 84° W 18:37:52 21° N
Cosmos 2195 Rocket 4.4 18:29:10 10° N 18:35:27 63° E 18:41:43 10° SSE
Cosmos 1536 Rocket 3.7 18:31:30 10° NNW 18:35:57 74° W 18:40:18 10° S
MOS 1 Rocket 4.4 18:32:35 10° SSW 18:36:37 40° W 18:40:50 10° NNW
USA 215 4.1 18:31:09 10° SSE 18:37:24 48° SW 18:43:42 10° WNW
Cosmos 1190 Rocket 4.4 18:32:56 10° SSW 18:38:10 64° WNW 18:42:26 16° NNE
Cosmos 676 Rocket 3.9 18:35:44 10° SSW 18:41:02 85° ESE 18:43:15 37° NNE
Cosmos 1428 Rocket 4.4 18:34:55 10° N 18:41:13 86° E 18:47:32 10° S
Resurs 01 Rocket 4.0 18:46:22 12° N 18:46:22 12° N 18:46:43 10° N
Cosmos 489 Rocket 4.3 18:37:04 10° NNW 18:43:21 87° ENE 18:49:34 10° SSE
Cosmos 2344 4.0 18:35:39 10° NNW 18:43:28 55° NE 18:47:32 36° ESE
Meteor 2-3 Rocket 3.6 18:41:36 10° N 18:47:18 69° ENE 18:49:59 32° SSE
BlueWalker 3 3.8 18:46:57 10° SSW 18:48:23 21° SSW 18:48:23 21° SSW
ISS -1.6 18:48:11 10° WNW 18:50:07 22° NW 18:50:07 22° NW
Cosmos 1954 Rocket 4.5 18:45:56 10° SSW 18:51:08 60° WNW 18:54:18 24° N
COSMO-SKYMED 1 3.6 18:57:48 25° NNW 18:59:44 42° WNW 19:03:37 10° SW
USA 281 3.5 19:02:00 47° NE 19:02:00 47° NE 19:07:32 10° NNW
Cosmos 968 Rocket 4.5 18:57:47 10° S 19:00:38 33° S 19:00:38 33° S
Cosmos 1400 Rocket 4.5 19:01:28 10° SW 19:04:51 30° WNW 19:05:52 26° NW
Cosmos 1634 Rocket 4.0 19:02:22 10° S 19:07:38 61° SSE 19:07:38 61° SSE
DELTA 2 R/B (1) 4.5 19:04:06 10° SW 19:08:21 37° S 19:08:21 37° S
BREEZE-M DEB (TANK) 4.3 19:22:05 10° WNW 19:37:13 68° SW 19:37:20 68° SSW
Cosmos 2082 Rocket 4.2 19:33:53 10° NW 19:38:19 24° WSW 19:42:45 10° SSW
Cosmos 1092 Rocket 4.4 19:32:15 10° NNW 19:38:22 59° W 19:39:48 47° SW
Cosmos 2369 Rocket 4.2 19:44:42 10° SSW 19:46:11 19° SSW 19:46:11 19° SSW
SJ 16-02 4.1 19:49:52 10° W 19:52:08 14° NW 19:52:17 14° NW
ATLAS 2AS CENTAUR R/B 4.0 20:09:42 10° NW 20:13:01 32° NW 20:13:01 32° NW
